Home   Weather   Tehran   Past weeks

Flag for Iran Past Weather in Tehran, Iran — Yesterday and Last 2 Weeks

Now
99 °F

Passing clouds.


Feels Like: 93 °F
Forecast: 84 / 100 °F
Wind: 9 mph from Southeast

Location: Tehran-Mehrabad

Current Time: Jul 26, 2017 at 3:26:26 pm

Latest Report: Jul 26, 2017 at 3:00 pm


Visibility: N/A

Pressure: 29.77 "Hg (26.14 "Hg at 1179m altitude)

Humidity: 9%

Dew Point: 30 °F

Location of TehranLocation

Past Weather in Tehran — Graph

°F

Tehran Temperature Yesterday

Maximum temperature yesterday: 99 °F (at 3:30 pm)
Minimum temperature yesterday: 79 °F (at 3:30 am)
Average temperature yesterday: 90 °F

High & Low Weather Summary for the Past Weeks

 TemperatureHumidityPressure
High102 °F (Jul 11, 4:00 pm)88% (Jul 13, 6:30 am)30.09 "Hg (Jul 13, 6:30 am)
Low63 °F (Jul 13, 6:00 am)7% (Jul 20, 9:30 am)29.74 "Hg (Jul 12, 5:30 pm)
Average87 °F21%29.89 "Hg
* Reported Jul 11 1:30 pm — Jul 26 2:00 pm, Tehran. Weather by CustomWeather, © 2017

Note: Actual official high and low records may vary slightly from our data, if they occured in-between our weather recording intervals... More about our weather records

Advertising

Tehran Weather History for the Previous 24 Hours

Scroll right to see more
 ConditionsComfort  
Time TempWeatherWind HumidityBarometerVisibility
2:00 pm
Wed, Jul 26
97 °FPassing clouds.9 mph10%29.77 "HgN/A
1:30 pm97 °FPassing clouds.14 mph10%29.80 "HgN/A
1:00 pm97 °FSunny.9 mph10%29.80 "Hg10 mi
12:30 pm95 °FSunny.9 mph11%29.83 "Hg10 mi
12:00 pm95 °FSunny.7 mph10%29.83 "Hg10 mi
11:30 am95 °FSunny.7 mph10%29.83 "Hg10 mi
11:00 am93 °FSunny.7 mph11%29.83 "Hg10 mi
10:30 am91 °FSunny.9 mph11%29.83 "Hg10 mi
10:00 am91 °FSunny.7 mph11%29.83 "Hg10 mi
9:30 am90 °FSunny.7 mph11%29.83 "Hg10 mi
9:00 am90 °FSunny.7 mph15%29.83 "Hg10 mi
8:30 am90 °FSunny.7 mph15%29.83 "Hg10 mi
8:00 am90 °FSunny.7 mph15%29.83 "Hg10 mi
7:30 am88 °FSunny.7 mph13%29.83 "Hg10 mi
7:00 am86 °FSunny.5 mph15%29.80 "Hg10 mi
6:30 am82 °FClear.7 mph17%29.80 "Hg10 mi
6:00 am82 °FClear.5 mph19%29.80 "Hg10 mi
5:30 am82 °FClear.5 mph19%29.80 "Hg10 mi
5:00 am84 °FClear.7 mph18%29.80 "Hg10 mi
4:30 am82 °FClear.7 mph20%29.80 "Hg10 mi
4:00 am82 °FClear.5 mph20%29.80 "Hg10 mi
3:30 am82 °FClear.5 mph19%29.80 "Hg10 mi
3:00 am82 °FClear.No wind20%29.80 "Hg10 mi
2:30 am82 °FClear.5 mph20%29.80 "Hg10 mi
2:00 am88 °FClear.5 mph15%29.80 "Hg10 mi
1:30 am88 °FPassing clouds.5 mph15%29.77 "HgN/A
1:00 am90 °FPassing clouds.7 mph14%29.77 "HgN/A
12:30 am90 °FPassing clouds.5 mph15%29.77 "HgN/A
12:00 am88 °FPassing clouds.7 mph17%29.77 "HgN/A
11:30 pm
Tue, Jul 25
88 °FPassing clouds.No wind17%29.77 "HgN/A
11:00 pm90 °FPassing clouds.5 mph15%29.77 "HgN/A
10:30 pm91 °FPassing clouds.5 mph14%29.77 "HgN/A
10:00 pm91 °FPassing clouds.5 mph16%29.77 "HgN/A
9:30 pm95 °FPassing clouds.7 mph11%29.74 "HgN/A
9:00 pm95 °FPassing clouds.7 mph11%29.74 "HgN/A
8:30 pm95 °FPassing clouds.7 mph10%29.74 "HgN/A
8:00 pm97 °FPassing clouds.7 mph9%29.74 "HgN/A
7:30 pm99 °FPassing clouds.5 mph9%29.74 "HgN/A
7:00 pm97 °FPassing clouds.5 mph9%29.74 "HgN/A
6:30 pm97 °FPassing clouds.7 mph9%29.74 "HgN/A
6:00 pm99 °FPassing clouds.7 mph9%29.74 "HgN/A
5:30 pm97 °FPassing clouds.9 mph9%29.74 "HgN/A
5:00 pm99 °FPassing clouds.12 mph9%29.74 "HgN/A
4:30 pm99 °FPassing clouds.7 mph9%29.77 "HgN/A
4:00 pm97 °FPassing clouds.5 mph10%29.77 "HgN/A
3:30 pm99 °FPassing clouds.No wind9%29.77 "HgN/A
3:00 pm97 °FSunny.12 mph9%29.77 "Hg10 mi
Weather by CustomWeather, © 2017

See weather overviewHow to use our weather pages